Location: La Bilong�re
(48.1297°N, 1.4584°W)
Time: 02:50:44
(UTC+00:00)

MOS 1 Rocket - Pass Details

Date: 03 March 2021
Orbit: 615 x 829 km, 97.4° (Epoch: 12 April)

Event Time Altitude Azimuth Distance (km) Brightness Sun altitude
Rises 18:31:55 0° 10° (N) 3,169 6.6 -7.2°
Reaches altitude 10° 18:34:10 10° 7° (N) 2,274 5.9 -7.6°
Maximum altitude 18:39:09 65° 287° (WNW) 858 4.1 -8.4°
Drops below altitude 10° 18:44:21 10° 207° (SSW) 2,377 6.4 -9.3°
Sets 18:46:45 0° 204° (SSW) 3,324 7.1 -9.7°
